EHI
4 4 4 2 1 1 2 3 4 4 3 3 2 2 2 1 0 1 1 0 0 0 0 0 0 0 0 0 0 1 1 1 0 0 0 0 0 0 0 0 0 0 0
5 5 5 4 3 2 2 4 5 5 4 3 4 5 4 2 1 2 2 1 0 0 0 0 0 0 0 0 0 0 0 0 0 0 0 0 0 0 0 0 0 0 0
4 4 5 5 3 1 2 4 7 6 5 5 6 8 7 4 2 3 3 2 1 0 0 0 0 0 0 0 0 0 0 0 0 0 0 0 0 0 0 0 0 0 0
3 3 4 4 3 1 1 4 7 8 6 6 8 9 7 4 2 2 3 2 1 0 0 0 0 0 0 0 0 0 0 0 0 0 0 0 0 0 0 0 0 0 0
3 3 4 3 3 1 1 4 7 8 7 7 9 9 7 5 2 2 2 1 0 0 0 0 0 0 0 0 0 0 0 0 0 0 0 0 0 0 0 0 0 0 0
3 4 5 5 5 4 3 4 7 8 7 7 8 9 8 6 3 2 1 1 1 0 0 0 0 0 0 0 0 0 0 0 0 0 0 0 0 0 0 0 0 0 0
4 4 6 7 8 8 6 4 5 6 6 7 7 7 7 5 2 1 2 2 2 1 0 0 0 0 0 0 0 0 0 0 0 0 0 0 0 0 0 0 0 0 0
4 5 7 8 10 10 7 5 4 4 5 6 5 5 5 3 1 0 1 3 3 2 1 0 0 0 0 0 0 0 0 0 0 0 0 0 0 0 0 0 0 0 0
3 5 7 8 9 9 7 5 4 4 5 5 4 4 4 3 1 0 1 2 3 2 1 0 0 0 0 0 0 0 0 0 0 0 0 0 0 0 0 0 0 0 0
2 4 6 7 7 7 6 4 3 3 4 5 4 3 3 3 1 0 1 2 2 1 0 0 0 0 0 0 0 0 0 0 0 0 0 0 0 0 0 0 0 0 0
1 3 5 6 6 6 5 4 4 3 3 3 3 3 3 3 2 0 0 1 1 0 0 0 0 0 0 0 0 0 0 0 0 0 0 0 0 0 0 0 0 0 0
1 2 4 4 5 6 6 6 5 4 3 2 2 3 3 3 2 1 1 0 0 0 0 0 0 0 0 0 0 0 0 0 0 0 0 0 0 0 0 0 0 0 0
0 2 4 4 4 4 5 6 7 7 5 3 2 3 4 3 3 2 2 1 1 1 0 0 0 0 0 0 0 0 0 0 0 0 0 0 0 0 0 0 0 0 0
0 2 4 4 3 3 4 5 7 8 7 4 3 4 5 4 3 3 2 2 2 1 1 0 0 0 0 0 0 0 0 0 0 0 0 0 0 0 0 0 0 0 0
0 1 2 3 3 3 3 4 6 7 5 4 4 5 5 5 4 3 3 2 2 2 1 0 0 0 0 0 0 0 0 0 0 0 0 0 0 0 0 0 0 0 0
0 0 0 1 2 3 3 4 5 5 4 3 3 4 4 4 3 3 3 2 1 1 1 0 0 0 0 0 0 0 0 0 0 0 0 0 0 0 0 0 0 0 0
0 0 0 0 1 2 3 4 3 3 3 3 3 3 2 2 2 2 2 1 1 1 1 0 0 0 0 0 0 0 0 0 0 0 0 0 0 0 0 0 0 0 0
0 0 0 0 0 1 2 2 1 1 1 2 2 1 1 1 1 1 1 0 1 2 2 1 1 0 0 0 0 0 0 0 0 0 0 0 0 0 0 0 0 0 0
0 0 0 0 0 0 1 1 0 0 0 1 1 0 0 0 0 0 0 1 2 3 3 3 2 1 0 0 0 0 0 0 0 0 0 0 0 0 0 0 0 0 0
0 0 0 0 0 0 0 0 0 0 0 1 1 0 0 0 0 0 0 1 3 3 3 2 2 1 0 0 0 0 0 0 0 0 0 0 0 0 0 0 0 0 0
0 0 0 0 0 0 0 0 0 0 1 2 2 1 0 0 0 0 1 2 3 2 1 1 1 0 0 0 0 0 0 0 0 0 0 0 0 0 0 0 0 0 0
0 0 0 0 0 0 0 0 0 1 2 3 3 1 0 0 0 0 1 2 2 1 0 0 0 0 0 0 0 0 0 0 0 0 0 0 0 0 0 0 0 0 0
0 0 0 0 0 0 0 0 1 2 3 3 3 2 0 0 0 0 0 1 1 0 0 0 0 0 0 0 0 0 0 0 0 0 0 0 0 0 0 0 0 0 0
0 0 0 0 0 0 0 0 2 3 3 3 3 1 0 0 0 0 0 0 0 0 0 0 0 0 0 0 0 0 0 0 0 0 0 0 0 0 0 0 0 0 0
0 0 0 0 0 0 0 0 2 3 3 3 2 1 0 0 0 0 0 0 0 0 0 0 0 0 0 0 0 0 0 0 0 0 0 0 0 0 0 0 0 0 0
0 0 0 0 0 0 0 1 2 3 3 3 2 1 0 0 0 0 0 0 0 0 0 0 0 0 0 0 0 0 0 0 0 0 0 0 0 0 0 0 0 0 0
Wind_Speed
6 6 4 4 4 4 5 7 6 4 4 3 2 2 2 1 2 2 2 1 1 2 2 1 2 2 2 2 2 2 2 1 1 2 2 2 2 2 2 2 2 2 3
6 5 5 4 4 4 4 6 5 5 5 3 2 2 2 1 2 2 2 1 1 1 2 2 2 3 2 1 1 2 1 1 1 1 1 1 2 2 1 2 2 2 2
4 5 4 4 3 3 3 3 4 5 5 4 2 2 2 1 1 2 1 1 1 1 1 1 2 2 2 2 1 2 2 1 1 1 1 1 1 0 1 1 2 2 1
4 4 3 4 3 3 3 3 4 4 5 5 3 3 3 2 2 2 2 2 2 2 1 1 1 2 2 2 2 2 2 2 1 1 0 1 2 2 0 1 1 1 1
4 4 4 4 4 3 2 2 3 3 3 3 4 3 2 1 1 2 3 2 2 2 2 2 2 1 2 3 2 2 2 1 1 1 0 1 0 0 2 1 1 1 0
5 5 4 4 3 4 2 2 2 2 3 3 3 3 3 2 2 2 2 2 2 2 3 2 2 2 2 2 3 2 2 1 1 1 1 1 1 1 1 1 1 1 1
4 4 4 3 3 4 3 2 2 2 3 3 4 4 4 3 3 3 3 2 1 2 3 2 2 2 2 2 2 2 2 2 2 2 1 1 1 1 1 1 1 0 1
3 4 3 3 3 3 3 2 3 3 3 3 4 3 3 3 2 2 2 2 2 2 2 2 3 3 2 2 2 2 2 2 2 2 1 1 1 1 1 1 2 0 1
4 4 3 3 3 3 2 2 2 2 3 3 2 2 2 2 2 2 2 2 2 1 2 2 2 2 2 2 2 2 2 2 2 2 2 1 1 1 1 1 2 2 1
4 4 4 3 2 2 2 2 2 2 2 2 2 2 2 2 2 2 2 2 2 2 1 1 1 2 2 2 2 2 2 3 2 2 2 2 1 1 1 1 1 1 2
4 4 3 2 2 2 2 1 1 1 1 1 1 2 2 2 1 2 2 2 2 2 2 2 1 1 1 2 1 2 2 2 2 2 2 3 2 2 1 1 1 1 1
4 4 3 3 2 2 2 1 0 0 1 1 1 1 1 2 1 1 1 2 2 2 2 2 2 1 1 1 1 1 2 2 3 3 3 3 2 3 2 1 2 2 2
5 4 3 3 2 2 2 1 1 1 1 1 0 1 1 1 1 1 1 2 2 2 2 2 2 2 1 1 1 1 1 2 2 2 2 3 3 3 2 2 2 2 2
4 4 3 3 2 2 1 1 1 1 1 1 0 0 1 1 1 1 1 1 2 3 3 3 2 2 1 1 1 1 1 2 2 2 2 2 2 3 3 2 2 2 1
4 4 3 3 3 2 1 1 1 1 1 1 1 1 0 1 0 0 0 1 1 1 2 2 2 2 2 1 1 1 1 1 2 2 2 2 2 2 3 2 3 2 2
3 3 3 3 3 3 2 1 1 1 1 0 1 1 1 1 0 0 1 1 1 1 1 2 2 2 1 1 1 0 1 1 2 2 2 2 2 2 2 3 4 4 4
2 1 2 3 3 2 2 1 1 1 1 0 1 1 1 0 1 0 1 1 1 1 1 2 2 2 2 1 0 1 1 2 2 2 2 2 1 1 1 2 2 2 3
2 1 1 1 1 1 2 2 2 1 1 0 0 1 2 1 1 1 1 1 1 1 1 1 2 2 1 2 1 2 2 2 2 2 2 1 1 1 0 1 1 2 3
1 1 1 1 1 1 1 2 2 1 1 0 0 1 1 2 2 2 1 1 1 1 1 1 1 1 1 2 2 1 2 2 2 2 1 1 1 2 1 0 1 2 3
2 2 1 1 1 1 1 2 2 1 1 0 1 1 0 1 2 2 2 1 1 1 1 1 1 2 1 1 1 2 1 2 2 1 1 2 2 2 1 1 1 3 3
3 2 2 1 1 1 1 1 2 1 1 0 1 0 0 0 1 1 1 1 1 0 0 1 1 1 1 1 2 2 1 1 1 1 1 2 2 2 2 2 2 4 4
2 2 1 1 1 1 1 1 1 1 1 1 1 1 1 1 2 1 0 1 1 1 0 1 1 1 0 1 1 2 2 2 1 2 1 1 3 3 4 3 4 5 3
1 1 1 1 1 1 1 1 1 1 2 2 1 1 1 1 2 2 1 1 1 1 0 1 1 1 0 0 0 1 2 2 1 1 2 3 3 3 3 4 5 3 1
0 1 1 1 1 1 1 1 1 1 1 2 2 1 1 1 2 1 1 1 1 0 0 0 1 1 0 0 0 1 1 2 2 2 2 3 3 2 2 3 2 2 1
0 0 1 1 1 1 1 2 1 1 1 1 2 1 1 1 1 1 1 1 1 2 1 0 0 0 1 1 1 0 1 1 1 1 1 1 1 1 1 1 1 1 1
1 1 1 2 1 1 1 2 1 1 1 1 1 1 1 1 1 1 2 2 2 2 2 1 1 1 1 2 1 1 1 1 1 0 1 1 1 2 2 1 2 1 2
Wind_Direction
162 146 141 137 137 135 135 131 142 140 128 128 128 123 121 125 113 114 103 73 74 102 108 89 92 83 87 92 88 93 84 60 73 76 52 30 60 85 84 72 66 73 93
151 141 153 158 151 143 142 140 145 141 131 131 141 142 126 137 126 126 124 133 113 99 119 138 125 119 110 100 99 101 91 39 55 97 88 50 13 10 79 105 101 83 72
146 147 161 153 149 148 148 138 144 143 142 148 134 109 104 96 119 146 145 173 166 140 135 119 129 146 147 143 142 124 126 144 314 53 105 120 144 306 357 65 92 87 71
153 151 158 150 155 157 146 149 154 152 146 144 141 153 159 170 179 163 163 182 174 154 147 150 178 171 156 158 175 153 153 152 222 315 21 144 137 136 12 330 46 109 122
163 162 155 154 163 145 134 145 142 139 138 141 150 166 172 179 161 147 153 169 167 171 175 177 196 192 172 175 173 153 160 173 187 194 265 20 20 184 145 211 281 328 307
166 167 156 154 142 121 127 141 137 139 140 149 159 180 182 173 163 165 168 181 180 189 193 190 187 187 186 188 173 167 175 191 204 212 188 164 196 223 152 172 217 231 260
159 148 138 138 134 129 136 152 154 158 164 182 190 194 181 179 187 185 181 182 189 191 194 186 185 195 198 188 162 171 181 194 201 210 204 198 241 215 168 140 182 266 277
143 135 133 130 132 136 144 174 180 184 184 199 210 199 172 170 184 180 169 180 186 189 189 188 190 193 185 185 171 174 194 193 193 221 208 200 253 253 187 158 141 149 294
133 131 127 130 128 136 150 185 185 196 192 201 201 193 173 171 181 176 174 173 176 181 177 184 197 186 179 180 169 181 203 202 201 206 210 202 220 235 232 160 150 163 207
139 127 122 125 130 137 158 187 191 206 202 187 190 192 167 177 171 169 172 162 158 151 161 189 190 183 173 171 186 193 210 205 205 197 211 216 203 206 208 188 203 181 182
130 126 126 133 127 117 121 125 176 161 178 204 196 187 169 171 172 177 172 162 167 165 177 187 178 173 172 163 168 210 221 210 208 198 210 227 204 192 201 189 196 227 159
135 136 138 140 134 131 136 146 119 139 166 181 220 186 149 163 172 170 173 166 159 166 173 176 171 170 164 154 167 209 232 230 224 215 207 219 211 200 202 193 203 210 205
144 145 147 154 150 144 153 160 142 81 78 115 232 199 163 170 196 192 180 179 175 173 173 170 175 173 166 171 185 198 229 251 245 236 223 222 206 202 202 198 214 214 219
157 154 155 160 154 158 168 165 125 105 81 130 176 234 185 163 187 236 189 199 183 174 177 179 176 172 168 184 191 198 215 242 259 261 245 233 215 207 201 204 211 198 204
167 161 166 169 164 169 187 171 141 127 121 143 173 221 229 107 142 199 182 225 179 183 178 170 165 167 170 186 139 208 226 258 275 276 269 248 225 214 205 201 202 194 194
173 173 176 169 176 186 194 180 144 145 133 153 202 169 116 114 187 203 183 216 179 180 185 174 169 165 163 101 79 2 245 240 253 260 273 266 251 233 217 208 198 193 197
135 169 190 176 180 184 172 164 164 146 130 160 201 152 143 167 202 187 196 188 169 161 182 189 174 167 169 152 175 283 268 261 257 253 257 277 279 272 226 229 214 220 230
152 171 170 173 182 174 157 155 145 129 124 197 266 169 168 181 190 174 216 191 171 167 187 206 200 177 178 170 192 265 261 270 263 256 248 249 264 296 302 245 228 233 242
114 128 145 170 177 125 121 137 143 140 134 67 330 258 196 175 172 176 204 205 164 181 187 204 211 184 197 172 182 194 254 272 273 264 281 296 265 310 14 333 247 250 257
82 91 102 103 112 99 95 141 148 135 141 261 294 304 259 174 182 183 196 189 152 206 201 210 205 187 190 161 153 183 240 274 291 301 300 317 325 337 342 265 241 255 260
69 71 91 101 108 117 128 166 155 161 176 92 22 12 5 162 146 160 164 147 140 158 215 222 225 202 172 152 150 173 242 264 288 305 309 318 342 332 311 291 256 258 269
79 75 78 93 102 125 146 168 165 157 115 88 69 55 49 60 72 83 126 149 131 137 185 267 266 240 173 124 183 201 239 285 261 276 284 302 331 324 304 289 289 282 281
115 126 121 119 114 131 145 169 178 133 138 132 114 88 78 80 93 102 87 72 97 121 233 276 265 272 356 7 174 213 253 288 289 296 316 316 307 300 292 287 292 294 272
116 128 114 137 166 170 153 143 112 126 142 145 127 97 82 76 90 97 93 79 72 81 195 271 285 284 287 3 343 247 251 274 286 305 315 316 314 296 289 293 291 289 270
253 150 158 194 211 205 142 117 116 122 134 126 121 114 99 108 110 99 88 89 72 94 123 220 280 304 291 337 17 53 246 254 247 281 290 303 317 311 303 298 284 277 294
203 211 205 200 197 187 149 122 130 137 129 114 108 113 109 120 132 130 98 87 87 74 84 91 95 21 14 24 36 22 5 348 305 291 276 273 269 256 250 257 265 263 260